Temp_Advection
nan nan nan nan nan nan nan nan nan nan nan nan nan nan nan nan nan nan nan nan nan nan nan nan nan nan nan
nan -0 0 1 0 0 0 -0 0 0 -0 0 0 0 0 0 1 1 0 0 0 0 -0 -0 -0 -0 nan
nan -0 0 0 0 0 0 0 0 -0 -0 0 0 0 1 1 0 -0 0 -0 -0 0 -0 -0 0 0 nan
nan -0 -0 0 0 0 0 -0 -0 -0 0 0 0 0 0 0 -0 0 0 0 0 -0 -0 -0 0 1 nan
nan 0 0 0 0 0 0 0 0 0 0 -0 -1 0 0 0 -0 0 0 0 -0 0 1 0 -0 -0 nan
nan 0 0 -0 -0 0 0 -0 -0 -0 -0 0 0 0 -0 -0 -0 0 0 0 0 -0 0 1 1 -0 nan
nan 0 0 0 0 0 -0 -0 -0 -0 -1 -1 0 -0 -0 -0 -0 0 0 0 0 0 -0 0 0 -0 nan
nan -0 0 0 0 0 0 -0 -0 -0 -0 -1 -0 -0 0 0 -0 -0 0 0 0 0 -0 0 0 -0 nan
nan -0 -0 0 -0 -0 -0 -0 -0 -0 0 -1 -1 -1 -0 -0 -0 0 1 1 0 0 -0 -0 -0 -0 nan
nan 0 0 0 0 0 -0 -0 -0 -0 -0 -0 -1 -1 -1 -0 0 0 0 -0 -0 -0 0 0 -0 -1 nan
nan 0 0 0 0 0 0 0 0 0 0 -1 -1 -0 -1 -3 -1 1 -0 -0 -0 0 0 -0 -0 0 nan
nan -0 -0 0 0 0 0 0 -0 0 0 0 -0 -0 -0 -2 -3 -1 0 0 -0 -0 0 0 0 1 nan
nan -0 -0 -0 -0 -0 -0 -0 -0 0 0 0 0 0 0 -1 -3 -2 -1 -1 0 -0 0 0 0 0 nan
nan -0 -0 -0 0 -0 -0 -0 -0 0 1 0 0 0 -0 -0 -1 -3 -1 -1 -1 0 0 -0 -0 0 nan
nan -0 -0 -0 0 0 -0 -0 -1 -1 0 1 1 0 0 -0 -1 -2 -1 -1 -1 -0 0 -1 -1 -0 nan
nan -0 -0 -0 -0 0 0 -0 -0 -0 -0 0 0 -0 -1 -0 -0 -1 -0 -1 -1 -0 0 -1 -2 -1 nan
nan nan nan nan nan nan nan nan nan nan nan nan nan nan nan nan nan nan nan nan nan nan nan nan nan nan nan
Wind_Speed
27 26 26 23 20 20 23 26 26 28 25 24 21 21 24 24 23 26 24 21 19 19 19 20 19 19 20
20 17 18 17 18 17 22 23 25 26 23 21 22 23 24 24 24 18 18 22 22 20 19 19 19 19 19
13 13 12 12 14 17 19 21 20 19 18 20 20 20 18 15 19 22 23 22 22 20 21 20 19 18 18
8 10 10 9 9 11 14 15 16 16 16 15 15 14 17 20 23 25 27 26 23 20 18 18 18 17 17
8 8 7 7 8 9 12 13 14 12 12 16 17 20 21 23 23 21 20 19 18 17 16 15 15 17 17
10 10 10 9 10 10 10 12 12 13 17 17 19 20 18 20 18 17 17 17 17 17 16 16 17 17 18
10 9 9 9 9 11 12 14 16 16 19 19 15 14 15 15 16 17 18 18 16 16 17 17 17 17 19
11 11 11 12 13 15 15 16 16 14 15 17 11 12 13 14 17 18 19 19 18 18 16 19 20 22 25
12 12 12 12 14 15 13 11 13 10 12 15 13 14 15 17 18 18 18 19 16 16 18 21 22 25 28
14 14 14 13 12 13 12 11 11 10 7 12 17 20 11 13 12 13 13 16 15 19 21 23 24 28 28
12 11 10 10 9 10 10 12 13 15 15 17 22 23 22 24 21 15 15 19 25 22 23 22 24 25 25
10 8 8 8 10 11 13 15 17 18 17 20 25 24 25 28 29 26 23 22 25 23 22 21 17 23 26
9 9 10 11 12 14 15 17 19 19 18 19 21 21 23 26 31 28 28 29 26 23 18 22 23 24 27
11 12 13 14 13 15 17 16 19 16 16 16 18 21 23 24 26 30 26 32 27 28 29 27 27 26 28
14 14 13 14 14 16 17 18 20 21 19 17 18 21 24 26 30 29 29 29 28 27 28 31 30 30 32
16 16 17 18 19 18 18 20 23 24 24 21 21 24 27 29 27 28 27 28 24 24 25 32 36 32 34
18 18 19 21 23 23 23 24 25 26 26 24 23 22 27 32 34 25 25 23 28 31 31 35 38 38 35
Wind_Direction
289 296 303 290 268 264 249 245 247 248 257 258 261 254 264 266 256 255 260 262 267 266 266 268 271 267 264
288 298 301 291 278 260 249 251 255 257 259 263 262 261 260 263 264 270 262 258 263 269 269 267 267 266 266
292 301 304 290 275 270 260 262 264 266 265 261 260 260 261 258 250 253 260 266 267 268 269 270 268 268 268
297 303 307 300 285 269 266 266 269 268 264 266 264 263 264 262 263 269 272 272 272 269 270 271 269 267 268
299 294 290 290 282 274 271 274 273 278 276 271 276 275 275 272 272 272 272 270 267 266 265 265 269 269 268
286 287 290 291 289 284 279 276 281 283 279 276 279 273 272 269 270 268 264 262 261 261 261 263 265 265 265
294 295 292 288 283 278 279 282 284 286 288 289 280 273 267 268 269 267 264 262 260 260 262 264 266 266 267
299 298 295 293 289 288 289 290 292 295 292 293 290 280 274 272 265 265 263 257 256 255 253 268 268 273 275
298 295 290 288 291 291 293 298 298 298 294 292 299 299 302 292 280 269 252 245 241 259 268 274 277 276 275
289 290 289 286 280 282 286 288 291 310 302 309 306 317 317 299 281 266 248 231 254 273 273 277 278 277 278
300 294 288 285 283 282 283 285 288 289 299 298 299 306 305 300 288 263 244 246 271 267 273 278 276 275 277
301 298 296 291 288 287 287 288 289 291 291 290 294 302 298 298 294 295 286 271 272 273 274 275 268 274 277
302 300 297 293 290 289 287 289 288 292 294 292 291 293 288 288 292 294 297 291 290 285 277 282 282 280 279
299 297 296 295 295 295 297 297 293 293 288 290 290 292 291 291 290 291 293 287 291 289 289 285 285 285 287
298 298 298 299 301 302 304 304 302 304 298 295 297 295 292 290 287 291 295 290 291 289 285 287 286 291 295
300 301 302 303 302 303 302 302 303 305 303 304 302 301 297 293 290 296 291 292 295 290 287 289 291 293 297
295 298 298 300 301 303 304 303 302 304 305 305 304 304 303 299 302 298 293 299 300 297 297 295 297 297 297
Height
1479 1477 1476 1474 1474 1476 1479 1481 1482 1488 1487 1488 1489 1489 1489 1491 1492 1493 1491 1493 1493 1494 1494 1496 1498 1499 1499
1476 1474 1473 1472 1472 1474 1477 1478 1479 1481 1482 1483 1483 1484 1484 1484 1485 1487 1487 1486 1487 1487 1488 1488 1490 1491 1493
1473 1472 1472 1471 1472 1473 1475 1475 1474 1476 1476 1477 1478 1478 1477 1478 1480 1479 1480 1481 1480 1480 1480 1481 1482 1483 1485
1471 1471 1470 1470 1470 1471 1472 1472 1472 1472 1472 1473 1472 1473 1471 1472 1473 1473 1474 1473 1474 1474 1474 1476 1476 1476 1478
1470 1470 1470 1470 1470 1470 1469 1469 1469 1468 1467 1468 1467 1467 1467 1468 1467 1466 1467 1468 1469 1469 1470 1471 1473 1474 1474
1470 1469 1468 1468 1468 1468 1468 1467 1467 1464 1464 1464 1463 1463 1463 1462 1462 1461 1462 1465 1465 1466 1466 1466 1467 1468 1469
1467 1467 1466 1466 1466 1466 1465 1464 1464 1463 1460 1459 1460 1459 1458 1457 1456 1456 1459 1460 1460 1462 1461 1460 1461 1461 1461
1465 1464 1463 1463 1462 1461 1461 1460 1459 1459 1457 1455 1456 1455 1453 1453 1453 1454 1455 1456 1457 1456 1455 1455 1455 1454 1454
1462 1461 1461 1460 1459 1458 1457 1457 1456 1456 1455 1453 1452 1450 1450 1449 1447 1447 1448 1449 1450 1451 1450 1449 1448 1447 1446
1460 1459 1457 1457 1456 1456 1455 1455 1455 1454 1453 1452 1449 1448 1447 1445 1445 1444 1445 1445 1445 1445 1444 1443 1442 1439 1438
1456 1456 1455 1454 1454 1454 1453 1453 1453 1452 1451 1449 1447 1446 1444 1442 1440 1442 1441 1442 1441 1440 1439 1437 1435 1432 1431
1454 1454 1453 1452 1452 1452 1451 1450 1449 1448 1448 1446 1442 1442 1440 1437 1434 1433 1434 1435 1434 1434 1432 1430 1429 1427 1425
1453 1452 1451 1450 1450 1449 1448 1447 1445 1444 1443 1441 1439 1437 1435 1432 1428 1427 1425 1423 1424 1424 1423 1423 1421 1419 1417
1451 1450 1448 1447 1447 1445 1444 1443 1441 1440 1439 1436 1434 1432 1429 1427 1424 1420 1421 1417 1418 1416 1414 1412 1411 1410 1408
1448 1447 1446 1445 1444 1442 1440 1438 1436 1434 1433 1432 1429 1426 1423 1420 1416 1415 1412 1410 1409 1408 1406 1401 1401 1399 1397
1445 1444 1442 1441 1439 1438 1436 1434 1431 1429 1427 1426 1423 1419 1415 1411 1410 1406 1404 1402 1401 1399 1398 1393 1389 1390 1386
1441 1440 1438 1436 1434 1432 1430 1428 1425 1422 1420 1418 1417 1414 1408 1402 1400 1401 1396 1395 1393 1390 1389 1385 1380 1376 1375